Time,TemperatureF,DewpointF,PressureIn,WindDirection,WindDirectionDegrees,WindSpeedMPH,WindSpeedGustMPH,Humidity,HourlyPrecipIn,Conditions,Clouds,dailyrainin,SoftwareType,DateUTC
2013-01-01 00:02:00,28.5,23.0,29.74,West,261,19.0,25.0,79,0.00,,,0.00,weatherlink.com 1.10,2013-01-01 05:02:00,
2013-01-01 00:17:00,28.4,23.0,29.73,SW,225,14.0,22.0,80,0.00,,,0.00,weatherlink.com 1.10,2013-01-01 05:17:00,
2013-01-01 00:32:00,28.7,23.0,29.72,SW,223,22.0,26.0,79,0.00,,,0.00,weatherlink.com 1.10,2013-01-01 05:32:00,
2013-01-01 00:47:00,29.0,24.0,29.72,SW,221,10.0,26.0,80,0.00,,,0.00,weatherlink.com 1.10,2013-01-01 05:47:00,
2013-01-01 01:02:00,29.0,24.0,29.71,SW,232,13.0,27.0,81,0.00,,,0.00,weatherlink.com 1.10,2013-01-01 06:02:00,
2013-01-01 01:17:00,28.9,24.0,29.71,SW,234,10.0,28.0,82,0.00,,,0.00,weatherlink.com 1.10,2013-01-01 06:17:00,
2013-01-01 01:32:00,28.8,24.0,29.71,WSW,250,12.0,24.0,83,0.00,,,0.00,weatherlink.com 1.10,2013-01-01 06:32:00,
2013-01-01 01:47:00,28.8,24.0,29.71,WSW,244,8.0,24.0,83,0.00,,,0.00,weatherlink.com 1.10,2013-01-01 06:47:00,
2013-01-01 02:02:00,28.8,25.0,29.71,WSW,240,7.0,25.0,84,0.00,,,0.00,weatherlink.com 1.10,2013-01-01 07:02:00,
2013-01-01 02:17:00,28.8,25.0,29.71,SW,236,8.0,22.0,85,0.00,,,0.00,weatherlink.com 1.10,2013-01-01 07:17:00,
2013-01-01 02:32:00,29.0,25.0,29.71,WSW,237,11.0,32.0,85,0.00,,,0.00,weatherlink.com 1.10,2013-01-01 07:32:00,
2013-01-01 02:47:00,29.6,25.0,29.70,SW,225,19.0,31.0,84,0.00,,,0.00,weatherlink.com 1.10,2013-01-01 07:47:00,
2013-01-01 03:02:00,29.7,25.0,29.70,WSW,249,5.0,31.0,84,0.00,,,0.00,weatherlink.com 1.10,2013-01-01 08:02:00,
2013-01-01 03:32:00,29.9,25.0,29.69,NW,317,12.0,28.0,83,0.00,,,0.00,weatherlink.com 1.10,2013-01-01 08:32:00,
2013-01-01 03:47:00,29.7,25.0,29.69,WSW,251,12.0,28.0,83,0.00,,,0.00,weatherlink.com 1.10,2013-01-01 08:47:00,
2013-01-01 04:02:00,29.5,25.0,29.69,SW,228,10.0,23.0,84,0.00,,,0.00,weatherlink.com 1.10,2013-01-01 09:02:00,
2013-01-01 04:17:00,29.6,25.0,29.69,WSW,240,10.0,27.0,83,0.00,,,0.00,weatherlink.com 1.10,2013-01-01 09:17:00,
2013-01-01 04:32:00,29.5,25.0,29.68,SW,231,7.0,26.0,82,0.00,,,0.00,weatherlink.com 1.10,2013-01-01 09:32:00,
2013-01-01 04:47:00,29.6,24.0,29.69,WSW,247,8.0,26.0,81,0.00,,,0.00,weatherlink.com 1.10,2013-01-01 09:47:00,
2013-01-01 05:02:00,29.6,24.0,29.69,WSW,246,20.0,29.0,81,0.00,,,0.00,weatherlink.com 1.10,2013-01-01 10:02:00,
2013-01-01 05:17:00,29.6,24.0,29.70,WNW,295,11.0,25.0,79,0.00,,,0.00,weatherlink.com 1.10,2013-01-01 10:17:00,
2013-01-01 05:32:00,29.3,23.0,29.70,NW,311,10.0,23.0,78,0.00,,,0.00,weatherlink.com 1.10,2013-01-01 10:32:00,
2013-01-01 05:47:00,29.7,22.0,29.71,WSW,240,26.0,29.0,74,0.00,,,0.00,weatherlink.com 1.10,2013-01-01 10:47:00,
2013-01-01 06:02:00,29.7,22.0,29.71,West,264,9.0,28.0,74,0.00,,,0.00,weatherlink.com 1.10,2013-01-01 11:02:00,
2013-01-01 06:17:00,29.4,22.0,29.72,SW,228,17.0,27.0,75,0.00,,,0.00,weatherlink.com 1.10,2013-01-01 11:17:00,
2013-01-01 06:32:00,28.4,24.0,29.73,SW,222,6.0,21.0,82,0.00,,,0.00,weatherlink.com 1.10,2013-01-01 11:32:00,
2013-01-01 06:47:00,27.8,23.0,29.73,West,267,15.0,21.0,83,0.00,,,0.00,weatherlink.com 1.10,2013-01-01 11:47:00,
2013-01-01 07:02:00,27.5,23.0,29.73,WSW,258,8.0,24.0,82,0.00,,,0.00,weatherlink.com 1.10,2013-01-01 12:02:00,
2013-01-01 07:17:00,27.3,22.0,29.73,West,265,9.0,25.0,81,0.00,,,0.00,weatherlink.com 1.10,2013-01-01 12:17:00,
2013-01-01 07:33:00,27.1,22.0,29.74,WSW,239,13.0,28.0,80,0.00,,,0.00,weatherlink.com 1.10,2013-01-01 12:33:00,
2013-01-01 07:48:00,26.7,19.0,29.75,NW,310,9.0,31.0,74,0.00,,,0.00,weatherlink.com 1.10,2013-01-01 12:48:00,
2013-01-01 08:03:00,26.0,20.0,29.76,WSW,242,8.0,20.0,77,0.00,,,0.00,weatherlink.com 1.10,2013-01-01 13:03:00,
2013-01-01 08:18:00,24.5,18.0,29.77,West,269,5.0,24.0,77,0.00,,,0.00,weatherlink.com 1.10,2013-01-01 13:18:00,
2013-01-01 08:33:00,24.0,18.0,29.78,NNW,334,12.0,26.0,77,0.00,,,0.00,weatherlink.com 1.10,2013-01-01 13:33:00,
2013-01-01 08:48:00,23.7,17.0,29.77,SW,234,11.0,27.0,76,0.00,,,0.00,weatherlink.com 1.10,2013-01-01 13:48:00,
2013-01-01 09:03:00,23.0,16.0,29.77,WSW,252,7.0,26.0,75,0.00,,,0.00,weatherlink.com 1.10,2013-01-01 14:03:00,
2013-01-01 09:18:00,22.2,14.0,29.77,NW,311,17.0,26.0,72,0.00,,,0.00,weatherlink.com 1.10,2013-01-01 14:18:00,
2013-01-01 09:33:00,20.7,13.0,29.78,West,279,11.0,33.0,71,0.00,,,0.00,weatherlink.com 1.10,2013-01-01 14:33:00,
2013-01-01 09:48:00,20.7,12.0,29.79,NW,309,12.0,31.0,69,0.00,,,0.00,weatherlink.com 1.10,2013-01-01 14:48:00,
2013-01-01 10:03:00,21.0,12.0,29.80,NW,315,16.0,27.0,67,0.00,,,0.00,weatherlink.com 1.10,2013-01-01 15:03:00,
2013-01-01 10:18:00,20.5,11.0,29.80,NNW,328,9.0,28.0,66,0.00,,,0.00,weatherlink.com 1.10,2013-01-01 15:18:00,
2013-01-01 10:33:00,20.2,10.0,29.80,NW,312,17.0,27.0,65,0.00,,,0.00,weatherlink.com 1.10,2013-01-01 15:33:00,
2013-01-01 10:48:00,20.7,11.0,29.80,WNW,291,9.0,23.0,66,0.00,,,0.00,weatherlink.com 1.10,2013-01-01 15:48:00,
2013-01-01 11:03:00,20.9,10.0,29.79,NW,320,16.0,33.0,63,0.00,,,0.00,weatherlink.com 1.10,2013-01-01 16:03:00,
2013-01-01 11:18:00,20.3,9.0,29.79,WNW,292,16.0,39.0,62,0.00,,,0.00,weatherlink.com 1.10,2013-01-01 16:18:00,
2013-01-01 11:33:00,19.5,9.0,29.80,West,277,16.0,40.0,64,0.00,,,0.00,weatherlink.com 1.10,2013-01-01 16:33:00,
2013-01-01 11:48:00,21.2,10.0,29.78,WSW,246,15.0,29.0,63,0.00,,,0.00,weatherlink.com 1.10,2013-01-01 16:48:00,
2013-01-01 12:03:00,21.1,10.0,29.78,WNW,301,13.0,37.0,62,0.00,,,0.00,weatherlink.com 1.10,2013-01-01 17:03:00,
2013-01-01 12:34:00,20.6,9.0,29.78,NW,322,9.0,34.0,62,0.00,,,0.00,weatherlink.com 1.10,2013-01-01 17:34:00,
2013-01-01 12:49:00,21.1,10.0,29.77,West,273,12.0,22.0,62,0.00,,,0.00,weatherlink.com 1.10,2013-01-01 17:49:00,
2013-01-01 13:04:00,20.2,9.0,29.78,SW,232,9.0,28.0,63,0.00,,,0.00,weatherlink.com 1.10,2013-01-01 18:04:00,
2013-01-01 13:19:00,20.0,10.0,29.77,WSW,254,18.0,28.0,65,0.00,,,0.00,weatherlink.com 1.10,2013-01-01 18:19:00,
2013-01-01 13:34:00,19.6,10.0,29.77,WSW,248,8.0,32.0,66,0.00,,,0.00,weatherlink.com 1.10,2013-01-01 18:34:00,
2013-01-01 13:49:00,20.4,10.0,29.77,WSW,242,11.0,27.0,64,0.00,,,0.00,weatherlink.com 1.10,2013-01-01 18:49:00,
2013-01-01 14:04:00,20.0,10.0,29.77,SSE,167,8.0,26.0,65,0.00,,,0.00,weatherlink.com 1.10,2013-01-01 19:04:00,
2013-01-01 14:19:00,18.5,8.0,29.78,West,279,20.0,32.0,65,0.00,,,0.00,weatherlink.com 1.10,2013-01-01 19:19:00,
2013-01-01 14:49:00,17.7,8.0,29.77,WNW,286,24.0,40.0,66,0.00,,,0.00,weatherlink.com 1.10,2013-01-01 19:49:00,
2013-01-01 15:04:00,17.2,8.0,29.77,WNW,283,19.0,33.0,67,0.00,,,0.00,weatherlink.com 1.10,2013-01-01 20:04:00,
2013-01-01 15:19:00,17.3,8.0,29.78,SSW,210,15.0,38.0,66,0.00,,,0.00,weatherlink.com 1.10,2013-01-01 20:19:00,
2013-01-01 15:34:00,18.3,9.0,29.79,WSW,255,10.0,20.0,68,0.00,,,0.00,weatherlink.com 1.10,2013-01-01 20:34:00,
2013-01-01 15:49:00,18.1,9.0,29.78,SSW,204,10.0,25.0,67,0.00,,,0.00,weatherlink.com 1.10,2013-01-01 20:49:00,
2013-01-01 16:05:00,17.9,8.0,29.79,WSW,246,12.0,31.0,65,0.00,,,0.00,weatherlink.com 1.10,2013-01-01 21:05:00,
2013-01-01 16:20:00,17.5,7.0,29.79,North,350,16.0,31.0,63,0.00,,,0.00,weatherlink.com 1.10,2013-01-01 21:20:00,
2013-01-01 16:50:00,16.8,5.0,29.80,SW,231,10.0,27.0,60,0.00,,,0.00,weatherlink.com 1.10,2013-01-01 21:50:00,
2013-01-01 17:05:00,16.4,5.0,29.81,SW,219,10.0,19.0,60,0.00,,,0.00,weatherlink.com 1.10,2013-01-01 22:05:00,
2013-01-01 17:20:00,15.9,5.0,29.82,SW,236,11.0,23.0,62,0.00,,,0.00,weatherlink.com 1.10,2013-01-01 22:20:00,
2013-01-01 17:35:00,15.3,5.0,29.83,SW,228,9.0,21.0,63,0.00,,,0.00,weatherlink.com 1.10,2013-01-01 22:35:00,
2013-01-01 17:50:00,13.5,3.0,29.83,WNW,292,12.0,27.0,64,0.00,,,0.00,weatherlink.com 1.10,2013-01-01 22:50:00,
2013-01-01 18:05:00,12.8,3.0,29.83,WNW,300,18.0,26.0,65,0.00,,,0.00,weatherlink.com 1.10,2013-01-01 23:05:00,
2013-01-01 18:20:00,12.5,3.0,29.84,NW,306,21.0,24.0,66,0.00,,,0.00,weatherlink.com 1.10,2013-01-01 23:20:00,
2013-01-01 18:35:00,12.4,3.0,29.85,West,277,13.0,26.0,66,0.00,,,0.00,weatherlink.com 1.10,2013-01-01 23:35:00,
2013-01-01 18:50:00,11.9,3.0,29.86,WNW,299,25.0,25.0,67,0.00,,,0.00,weatherlink.com 1.10,2013-01-01 23:50:00,
2013-01-01 19:05:00,11.8,2.0,29.87,NW,306,16.0,29.0,66,0.00,,,0.00,weatherlink.com 1.10,2013-01-02 00:05:00,
2013-01-01 19:20:00,11.4,2.0,29.88,WNW,293,11.0,27.0,66,0.00,,,0.00,weatherlink.com 1.10,2013-01-02 00:20:00,
2013-01-01 19:36:00,11.3,2.0,29.89,WNW,282,14.0,24.0,66,0.00,,,0.00,weatherlink.com 1.10,2013-01-02 00:36:00,
2013-01-01 19:51:00,12.3,3.0,29.89,WSW,255,8.0,23.0,66,0.00,,,0.00,weatherlink.com 1.10,2013-01-02 00:51:00,
2013-01-01 20:06:00,11.9,3.0,29.90,West,277,8.0,20.0,67,0.00,,,0.00,weatherlink.com 1.10,2013-01-02 01:06:00,
2013-01-01 20:21:00,11.5,3.0,29.89,WNW,284,7.0,19.0,68,0.00,,,0.00,weatherlink.com 1.10,2013-01-02 01:21:00,
2013-01-01 20:36:00,11.1,3.0,29.89,WNW,302,2.0,15.0,69,0.00,,,0.00,weatherlink.com 1.10,2013-01-02 01:36:00,
2013-01-01 20:51:00,10.9,3.0,29.89,WSW,241,6.0,15.0,70,0.00,,,0.00,weatherlink.com 1.10,2013-01-02 01:51:00,
2013-01-01 21:06:00,10.7,3.0,29.89,SW,234,7.0,14.0,70,0.00,,,0.00,weatherlink.com 1.10,2013-01-02 02:06:00,
2013-01-01 21:21:00,10.6,3.0,29.89,WSW,245,8.0,20.0,70,0.00,,,0.00,weatherlink.com 1.10,2013-01-02 02:21:00,
2013-01-01 21:36:00,10.4,2.0,29.89,West,264,11.0,25.0,70,0.00,,,0.00,weatherlink.com 1.10,2013-01-02 02:36:00,
2013-01-01 21:51:00,10.3,3.0,29.89,SW,224,12.0,25.0,71,0.00,,,0.00,weatherlink.com 1.10,2013-01-02 02:51:00,
2013-01-01 22:06:00,9.9,3.0,29.90,WSW,239,11.0,24.0,72,0.00,,,0.00,weatherlink.com 1.10,2013-01-02 03:06:00,
2013-01-01 22:21:00,9.8,3.0,29.90,WSW,245,18.0,25.0,73,0.00,,,0.00,weatherlink.com 1.10,2013-01-02 03:21:00,
2013-01-01 22:36:00,9.6,3.0,29.91,NW,324,8.0,30.0,73,0.00,,,0.00,weatherlink.com 1.10,2013-01-02 03:36:00,
2013-01-01 22:52:00,9.4,2.0,29.91,NW,306,23.0,24.0,73,0.00,,,0.00,weatherlink.com 1.10,2013-01-02 03:52:00,
2013-01-01 23:07:00,9.4,2.0,29.92,WSW,238,9.0,25.0,73,0.00,,,0.00,weatherlink.com 1.10,2013-01-02 04:07:00,
2013-01-01 23:22:00,9.1,2.0,29.92,SSW,202,13.0,19.0,74,0.00,,,0.00,weatherlink.com 1.10,2013-01-02 04:22:00,
2013-01-01 23:37:00,9.0,2.0,29.91,WSW,257,17.0,22.0,74,0.00,,,0.00,weatherlink.com 1.10,2013-01-02 04:37:00,
2013-01-01 23:52:00,9.0,2.0,29.91,SW,234,9.0,20.0,74,0.00,,,0.00,weatherlink.com 1.10,2013-01-02 04:52:00,